Flag for Germany Weather past 2 weeks in Göttingen, Lower Saxony, Germany

Now
54 °F

Partly sunny.


Feels Like: 53 °F
Forecast: 45 / 64 °F
Wind: 3 mph from Southwest

Location: Kassel / Calden

Current Time: Aug 23, 2014 at 8:09:42 PM

Latest Report: Aug 23, 2014 at 7:20 PM


Visibility: N/A

Pressure: 29.92 "Hg

Humidity: 88%

Dew point: 50 °F

Location of GöttingenLocation

Historic Weather in Göttingen — Graph

°F

Göttingen temperature yesterday

Maximum temperature yesterday: 66 °F (at 4:20 PM)
Minimum temperature yesterday: 50 °F (at 5:50 AM)
Average temperature yesterday: 59 °F

Past Weeks' High & Low Weather Summary

 TemperatureHumidityPressure
High79 °F (Aug 8, 6:20 PM)100% (Aug 14, 6:20 AM)30.07 "Hg (Aug 14, 6:20 AM)
Low46 °F (Aug 19, 6:20 AM)40% (Aug 12, 3:50 PM)29.65 "Hg (Aug 13, 3:20 PM)
Average61 °F71%29.87 "Hg
* Reported Aug 8 6:20 PM — Aug 23 6:50 PM, Göttingen, Weather by CustomWeather, © 2014

Note: Actual official high and low records may vary slightly from our data, if they occured in-between our weather recording intervals... More about our weather records

Advertising

Göttingen weather history for previous 24 hours

 ConditionsComfort  
Time TempWeatherWind HumidityBarometerVisibility
6:50 PM
Aug 23
54 °FPartly sunny.5 mph82%29.92 "HgN/A
6:20 PM54 °FLight rain. Partly sunny.6 mph88%29.92 "HgN/A
5:50 PM52 °FRain. Broken clouds.9 mph88%29.95 "HgN/A
5:20 PM55 °FBroken clouds.16 mph72%29.92 "HgN/A
4:50 PM59 °FBroken clouds.7 mph72%29.92 "HgN/A
4:20 PM59 °FBroken clouds.13 mph72%29.89 "HgN/A
3:50 PM59 °FPartly sunny.5 mph72%29.92 "HgN/A
3:20 PM59 °FPartly sunny.7 mph72%29.92 "HgN/A
2:50 PM59 °FScattered clouds.8 mph72%29.92 "HgN/A
2:20 PM59 °FScattered clouds.9 mph77%29.92 "HgN/A
1:50 PM57 °FLight rain. Scattered clouds.3 mph77%29.92 "HgN/A
1:20 PM59 °FScattered clouds.5 mph77%29.92 "HgN/A
12:50 PM57 °FScattered clouds.2 mph77%29.92 "HgN/A
12:20 PM52 °FLight rain. Partly sunny.10 mph88%29.92 "Hg3 mi
11:50 AM57 °FBroken clouds.8 mph72%29.92 "HgN/A
11:20 AM59 °FScattered clouds.6 mph68%29.92 "HgN/A
10:50 AM57 °FScattered clouds.3 mph72%29.92 "HgN/A
10:20 AM57 °FPartly sunny.5 mph77%29.92 "HgN/A
9:50 AM55 °FMostly cloudy.2 mph77%29.92 "HgN/A
9:20 AM55 °FBroken clouds.5 mph82%29.92 "HgN/A
8:50 AM54 °FPartly sunny.5 mph88%29.92 "HgN/A
8:20 AM54 °FPartly sunny.3 mph88%29.92 "HgN/A
7:50 AM52 °FPartly sunny.5 mph94%29.92 "HgN/A
7:20 AM52 °FPartly sunny.6 mph94%29.92 "HgN/A
6:50 AM50 °FPassing clouds.6 mph94%29.89 "HgN/A
6:20 AM48 °FPassing clouds.1 mph100%29.89 "HgN/A
5:50 AM50 °FPartly cloudy.3 mph94%29.89 "HgN/A
9:50 PM
Aug 22
55 °FLight rain. Passing clouds.10 mph82%29.89 "HgN/A
9:20 PM59 °FPassing clouds.8 mph63%29.89 "HgN/A
8:50 PM61 °FSunny.8 mph55%29.86 "Hg10 mi
8:20 PM61 °FSunny.9 mph55%29.86 "Hg10 mi
Weather by CustomWeather, © 2014

See weather overviewHow to use our weather pages